Location: Unspecified
(0.0000°N, 0.0000°E)
Time: 10:10:05
(UTC+00:00)

deb DAPP - Pass Details

Date: 19 December 2025
Orbit: 606 x 945 km, 99.0° (Epoch: 17 January)

Event Time Altitude Azimuth Distance (km) Brightness Sun altitude
Rises 19:36:33 0° 182° (S) 3,248 ? -22.6°
Reaches altitude 10° 19:38:54 10° 189° (S) 2,370 ? -23.2°
Maximum altitude 19:43:50 41° 258° (WSW) 1,202 ? -24.3°
Drops below altitude 10° 19:49:10 10° 327° (NNW) 2,554 ? -25.5°
Sets 19:51:47 0° 334° (NNW) 3,529 ? -26.1°
